Regional Weather Roundup
Issued by NWS Sioux Falls, SD

Home | Current Version | Previous Version | Text Only | Print | Product List | Glossary On
Versions: 1 2 3 4 5 6 7 8 9 10 11 12 13 14 15 16 17 18 19 20 21 22 23 24 25 26 27 28 29 30 31 32 33 34 35 36 37 38 39 40 41 42 43 44 45 46 47 48 49 50
000
ASUS43 KFSD 211402
RWRFSD

WEATHER ROUNDUP FOR SE SOUTH DAKOTA/SW MINNESOTA/NW IOWA
NATIONAL WEATHER SERVICE SIOUX FALLS SD
900 AM CDT SAT OCT 21 2017

NOTE: "FAIR" INDICATES FEW OR NO CLOUDS BELOW 12,000 FEET WITH NO
SIGNIFICANT WEATHER AND OR OBSTRUCTIONS TO VISIBILITY.


SDZ038>040-050-052>070-211500-
SOUTHEAST SOUTH DAKOTA

CITY           SKY/WX    TMP DP  RH WIND       PRES   REMARKS
BROOKINGS      CLOUDY    63  59  87 S16       29.51R
CHAMBERLAIN    LGT RAIN  54  43  66 NW16G23   29.62R
HURON          CLOUDY    56  44  64 NW21      29.52R
MADISON        PTSUNNY   63  63 100 S15       29.51R
MITCHELL       CLOUDY    62  52  69 NW22G29   29.51R
SIOUX FALLS    CLOUDY    65  62  90 S17G26    29.52S
WINNER         FAIR      52  40  63 NW18G28   29.63R
YANKTON        PTSUNNY   69  62  78 S15       29.51R
$$

MNZ071-072-080-081-089-090-097-098-211500-
SOUTHWEST MINNESOTA

CITY           SKY/WX    TMP DP  RH WIND       PRES   REMARKS
FAIRMONT       CLOUDY    61  59  93 S23       29.65S
JACKSON        LGT RAIN  61  59  94 S17G26    29.65S
MARSHALL       NOT AVBL
MONTEVIDEO     CLOUDY    64  59  82 S12       29.52S
PIPESTONE      CLOUDY    63  59  88 S18G26    29.54R
REDWOOD FALLS  CLOUDY    65  58  78 S25G32    29.57R
TRACY          CLOUDY    64  61  88 S21G28    29.55F
WORTHINGTON    CLOUDY    62  60  93 S13G23    29.61R
$$

IAZ001>003-012>014-020>022-031-032-NEZ013-014-SDZ071-211500-
NORTHWEST IOWA

CITY           SKY/WX    TMP DP  RH WIND       PRES   REMARKS
CHEROKEE       CLOUDY    65  62  90 S17G25    29.64R
DENISON        CLOUDY    64  61  88 S23G32    29.66S
ESTHERVILLE    LGT RAIN  60  60 100 S17G25    29.67R
LE MARS        CLOUDY    68  63  83 S21       29.57S
ORANGE CITY    CLOUDY    68  63  83 S13G23    29.59F
SHELDON        CLOUDY    64  63  94 S14G22    29.59S
SIOUX CITY     CLOUDY    67  63  87 SE9       29.58R
SPENCER        CLOUDY    63  61  93 S18G25    29.65R
STORM LAKE     CLOUDY    63  61  94 S16G26    29.66R
$$

ABBREVIATIONS USED IN REMARKS
   TC - TEMPERATURE IN CELSIUS
  WCI - WIND CHILL INDEX
   HX - HEAT INDEX
  VSB - VISIBILITY




USA.gov is the U.S. government's official web portal to all federal, state and local government web resources and services.